Theta_e
320 321 323 322 321 323 322 321 321 321 321 319 316 313 308 304 301 297 296 292 292 291 289 289 289 288 289 288 289 289 290 291
319 321 321 320 320 320 321 320 319 320 319 314 309 304 301 299 298 293 293 291 290 290 290 289 288 288 288 289 289 288 290 288
313 312 310 311 314 314 317 315 314 315 309 302 299 297 296 294 293 292 291 291 291 291 291 289 289 288 288 288 288 287 287 287
299 297 297 297 297 296 296 296 297 297 296 295 294 293 293 291 292 292 291 292 291 290 290 289 289 288 288 288 288 287 287 286
294 293 294 294 294 293 293 294 294 294 293 292 292 292 292 292 292 292 292 291 290 290 290 289 289 288 287 286 286 286 286 285
292 292 293 293 293 294 294 295 295 293 292 291 292 292 292 291 291 290 290 290 290 289 288 288 287 286 286 285 285 285 284 284
291 292 292 292 292 293 293 293 293 292 292 292 291 290 289 288 288 287 287 286 286 285 285 285 286 288 287 286 284 283 283 283
291 291 292 292 293 293 293 293 292 291 290 288 288 287 286 286 285 284 284 284 284 284 284 284 284 287 287 288 285 284 284 284
292 292 293 293 293 293 292 291 290 288 287 287 286 285 284 284 283 283 283 283 283 282 283 282 282 285 286 287 285 285 285 285
290 290 289 289 289 287 286 286 286 286 286 285 285 284 283 283 283 282 283 282 282 282 282 281 282 285 285 285 283 283 283 284
283 283 283 284 284 282 281 282 281 282 283 284 285 284 284 284 284 283 282 282 281 282 282 283 282 284 285 284 283 282 282 283
276 275 276 280 280 278 279 278 280 281 280 280 281 281 282 282 281 281 281 281 281 281 282 281 281 281 283 284 282 282 282 282
273 272 273 275 276 275 274 277 278 277 277 277 278 278 279 280 280 281 281 281 280 280 281 282 281 282 283 284 283 283 280 280
273 272 271 272 272 272 272 275 275 275 275 275 276 277 277 277 278 279 279 279 279 279 279 280 281 282 283 282 282 282 281 282
271 270 269 270 269 270 271 274 274 273 273 274 274 275 275 276 276 278 275 276 276 276 276 276 276 277 277 277 278 279 279 280
269 268 267 268 268 267 269 271 273 272 272 273 273 273 273 274 275 274 275 276 274 273 273 272 272 274 276 277 276 276 277 275
267 267 266 266 265 266 267 268 269 270 271 270 271 271 271 271 271 275 275 276 276 275 274 273 274 275 276 276 276 276 276 271
265 265 265 264 264 264 266 266 267 266 268 269 268 269 268 269 268 267 270 273 273 273 273 273 273 274 274 274 274 272 271 267
264 263 263 262 262 263 265 265 265 267 266 267 267 267 267 267 267 267 265 265 266 270 271 270 271 272 272 272 269 264 265 265
262 262 261 261 261 262 263 265 265 265 264 266 266 266 266 266 266 266 265 264 264 265 267 266 270 270 269 269 263 262 262 262
Wind_Speed
18 17 16 18 18 18 17 18 18 17 15 12 12 10 9 10 12 11 11 10 10 9 8 7 3 6 4 3 3 2 1 2
15 14 13 12 13 14 14 14 15 15 13 11 10 10 11 9 10 11 13 11 8 10 8 9 5 3 3 3 3 4 3 2
9 10 7 6 5 6 8 10 9 10 10 10 12 11 11 11 11 11 11 9 10 7 6 6 7 6 4 4 3 4 5 5
11 10 10 9 8 9 9 9 9 10 11 10 10 11 11 13 14 13 12 6 9 5 8 5 7 6 5 2 4 4 4 4
12 12 11 11 9 12 12 10 11 13 12 11 10 12 13 11 11 11 11 7 5 5 5 5 6 4 4 5 5 5 5 5
13 12 12 12 12 11 11 12 10 13 14 12 9 12 10 12 8 7 9 5 4 5 4 3 4 4 5 5 4 5 6 6
16 16 14 14 13 13 12 11 14 11 14 12 12 9 11 7 6 7 6 5 3 2 1 3 2 3 6 5 4 5 6 9
15 16 12 16 15 13 11 12 16 11 12 12 9 9 8 7 7 6 5 4 3 3 4 3 2 5 8 9 5 6 9 9
16 17 16 14 18 14 15 15 14 12 11 9 8 8 7 5 5 5 3 2 2 3 3 4 3 8 10 10 8 9 11 10
18 19 20 19 16 16 16 14 14 12 10 9 7 7 6 6 6 4 3 3 3 3 4 5 4 8 10 9 6 9 11 10
18 19 20 15 15 19 15 16 15 13 12 11 10 9 8 6 6 4 4 4 3 4 4 5 6 9 11 10 5 9 8 9
20 18 16 14 13 18 15 17 11 11 10 11 10 9 8 7 5 5 5 4 3 3 3 2 5 8 14 14 7 7 8 9
18 18 16 16 14 16 18 11 10 10 11 11 11 9 8 9 7 7 8 8 8 8 7 5 5 10 13 16 15 16 9 10
16 17 16 16 16 16 13 12 11 11 12 11 10 11 10 11 11 9 10 8 8 7 8 8 8 8 20 23 26 22 15 12
14 17 17 16 17 15 13 10 11 12 12 11 12 11 11 8 8 8 10 9 8 10 10 10 11 11 12 13 13 19 16 20
15 15 16 14 15 14 14 12 11 10 11 10 9 11 10 10 9 9 10 12 10 10 10 10 11 13 20 19 13 13 17 20
14 13 12 12 12 13 13 12 10 10 9 9 8 8 8 8 8 15 17 17 19 18 13 7 15 21 24 27 28 28 29 12
11 10 10 10 11 11 11 10 11 11 10 8 9 8 8 8 8 8 8 10 15 19 22 26 26 28 29 29 29 25 22 10
8 10 9 10 12 11 10 10 9 8 9 7 6 6 5 5 6 7 9 12 13 16 20 23 25 27 27 27 19 11 11 9
9 10 9 10 11 10 8 7 8 8 7 8 8 10 11 10 9 7 7 7 8 10 14 15 24 25 23 23 9 11 10 11
Wind_Direction
192 192 186 194 194 187 188 188 187 184 183 181 171 167 156 151 150 138 130 125 130 119 113 89 87 107 113 79 84 111 151 131
183 182 180 182 182 185 185 180 182 181 172 162 153 148 141 136 133 129 124 124 130 130 134 122 133 130 124 162 185 194 178 192
94 100 82 116 143 152 165 156 163 156 144 138 130 126 125 118 115 118 122 122 125 121 106 127 157 180 178 198 192 226 203 211
78 77 77 71 69 71 66 86 93 100 108 110 116 118 121 121 117 125 123 122 118 136 141 155 165 197 208 195 205 225 234 223
76 73 70 69 70 75 74 66 80 86 90 88 95 103 109 100 112 114 113 130 131 137 143 176 181 183 188 200 207 216 229 226
75 75 74 73 70 73 73 82 88 84 81 85 88 100 98 101 102 115 95 118 136 151 166 167 186 195 197 205 224 238 245 236
73 74 72 79 74 73 73 82 84 95 92 91 77 77 74 82 92 78 79 86 97 89 125 218 223 230 240 235 233 239 249 257
71 69 71 73 65 66 77 75 72 70 73 71 77 74 74 70 72 78 95 124 135 178 207 241 245 259 259 256 258 262 255 256
67 66 62 69 70 65 58 54 61 54 56 54 62 74 70 80 92 96 90 84 25 341 328 299 297 300 279 265 255 256 259 258
53 57 52 46 58 63 53 49 47 41 42 48 48 65 72 67 62 53 52 45 32 353 326 308 291 284 288 287 270 262 265 271
47 49 47 39 52 60 47 45 35 28 30 30 35 46 48 46 44 28 23 8 349 342 336 326 312 315 313 311 287 283 281 280
51 50 35 33 51 59 49 42 27 32 41 40 36 41 29 41 33 27 19 3 3 347 328 313 325 341 349 341 320 302 301 294
52 46 32 28 45 53 49 26 33 39 43 40 34 32 26 32 24 32 23 26 20 6 9 18 11 356 357 355 345 329 315 300
54 56 40 33 35 49 23 22 31 39 40 36 32 34 27 29 24 30 26 23 15 10 2 358 358 359 4 350 344 337 329 314
51 49 43 31 32 32 17 8 35 42 32 30 33 27 29 30 27 32 25 18 13 15 7 2 357 358 352 349 341 337 331 324
43 43 38 29 31 22 14 10 33 36 32 26 28 28 25 26 30 30 26 30 25 17 5 358 357 351 341 337 337 332 327 327
46 47 40 34 29 18 12 14 26 38 31 25 25 22 25 22 15 24 27 33 31 20 16 5 347 344 347 350 343 342 344 341
54 51 43 35 31 13 11 17 34 38 28 27 28 22 21 17 14 6 0 12 16 12 11 9 359 354 350 349 350 345 348 340
47 43 33 33 29 6 5 20 27 37 28 32 30 22 24 15 15 10 5 359 352 0 1 3 351 351 349 347 347 338 344 331
53 43 33 31 22 1 357 26 34 36 26 18 19 20 14 12 9 0 360 344 336 335 342 349 342 346 346 348 345 335 330 327